[[{"header":{"parameterUnit":"m.s-1","parameterCategory":2,"la1":30.2991,"la2":30.254,"lo1":-89.0895,"lo2":-89.0444,"dy":0.0017,"dx":0.0017,"nx":28,"ny":28,"refTime":"2023-10-18T03:00:00:Z","depth":"0","parameterNumber":2,"parameterNumberName":"U-component_of_CURRENTS"},"data":[0,0,0,0,0,0,0,0,0,0,0,0,0,0,0,0,0,0,0,0,0,0,0,0,0,0,0,0,0,0,0,0,0,0,0,0,0,0,0,0,0,0,0,0,0,0,0,0,0,0,0,0,0,0,0,0,0,0,-0.3242,-0.3243,0,-0.3301,-0.3301,-0.3302,-0.3314,-0.3314,-0.3314,-0.3315,-0.3283,-0.3282,-0.3281,0,0,0,0,0,0,0,0,0,0,0,0,0,-0.31,-0.3102,-0.3242,-0.3243,-0.3244,-0.3301,-0.3301,-0.3302,-0.3314,-0.3314,-0.3314,-0.3315,-0.3283,-0.3282,-0.3281,0,0,0,0,0,0,0,0,0,0,0,0,0,-0.3155,-0.3103,-0.3241,-0.3261,-0.3264,-0.3301,-0.3301,-0.3302,-0.3314,-0.3314,-0.3314,-0.3315,-0.3283,-0.3282,-0.3281,-0.327,0,0,-0.3276,-0.3276,0,0,0,0,0,0,0,0,-0.3152,-0.316,-0.3257,-0.326,-0.3263,-0.3305,-0.324,-0.3288,-0.3314,-0.3289,-0.3315,-0.3315,-0.3285,-0.3284,-0.3288,-0.3268,-0.3267,-0.3276,-0.3275,-0.3275,-0.3274,0,0,0,0,0,0,0,-0.3148,-0.3157,-0.3259,-0.3259,-0.3263,-0.3255,-0.3262,-0.3249,-0.328,-0.3291,-0.3294,-0.331,-0.3286,-0.3289,-0.3287,-0.3266,-0.3276,-0.3275,-0.3274,-0.3274,-0.3171,-0.3169,0,0,0,0,0,0,-0.3155,-0.3154,-0.3258,-0.3262,-0.3213,-0.3257,-0.3266,-0.3287,-0.3282,-0.3284,-0.3309,-0.331,-0.3292,-0.3289,-0.3286,-0.324,-0.3275,-0.3273,-0.3273,-0.3173,-0.3171,-0.3169,0,0,0,0,0,0,-0.3151,-0.3163,-0.3255,-0.3213,-0.3225,-0.3261,-0.3284,-0.3288,-0.3296,-0.3298,-0.3296,-0.3313,-0.3292,-0.3288,-0.3265,-0.324,-0.3273,-0.3272,-0.3175,-0.3172,-0.317,-0.3168,0,0,0,0,0,0,-0.3147,-0.3162,-0.3157,-0.3214,-0.3228,-0.3256,-0.3285,-0.329,-0.3308,-0.3309,-0.33,-0.3298,-0.3291,-0.3267,-0.3264,-0.3239,-0.3271,-0.3178,-0.3174,-0.3171,-0.3171,-0.3166,-0.3161,0,0,0,0,0,-0.3142,-0.3131,-0.3156,-0.3168,-0.3228,-0.3256,-0.326,-0.3282,-0.3308,-0.3293,-0.3296,-0.3298,-0.3241,-0.3265,-0.3261,-0.3235,-0.3179,-0.3175,-0.3171,-0.3173,-0.3167,-0.3162,0,0,0,0,0,0,-0.3019,-0.3134,-0.3162,-0.3174,-0.3208,-0.326,-0.3249,-0.3284,-0.3279,-0.3281,-0.3287,-0.3283,-0.324,-0.3238,-0.3265,-0.319,-0.3205,-0.32,-0.3207,-0.3201,-0.3197,-0.3137,-0.3269,0,0,0,0,0,-0.3006,-0.3045,-0.3129,-0.3121,-0.3152,-0.3206,-0.3217,-0.3245,-0.3263,-0.3263,-0.326,-0.3246,-0.3219,-0.3214,-0.318,-0.316,-0.3118,-0.3133,-0.3129,-0.3125,-0.307,-0.3005,-0.2989,-0.3155,-0.3155,-0.3155,0,0,-0.2942,-0.3015,-0.3025,-0.3101,-0.3134,-0.3169,-0.321,-0.323,-0.3236,-0.3258,-0.3237,-0.3223,-0.3205,-0.3166,-0.3148,-0.3168,-0.3061,-0.312,-0.3117,-0.3063,-0.2999,-0.2982,-0.2968,-0.3152,-0.3152,-0.3153,0,0,-0.2864,-0.2918,-0.2944,-0.2997,-0.3074,-0.3114,-0.3127,-0.3186,-0.3186,-0.3192,-0.3185,-0.3152,-0.3147,-0.3105,-0.3095,-0.3042,-0.3027,-0.3043,-0.299,-0.2929,-0.2915,-0.2901,-0.2854,-0.2836,-0.3057,-0.3057,-0.3057,0,-0.2782,-0.2839,-0.2935,-0.299,-0.3014,-0.3097,-0.311,-0.3133,-0.3163,-0.3139,-0.3178,-0.3109,-0.3106,-0.3031,-0.3013,-0.3028,-0.2997,-0.3026,-0.2923,-0.2909,-0.2896,-0.285,-0.283,-0.3056,-0.3057,-0.3057,-0.3057,0,-0.2754,-0.2797,-0.2809,-0.292,-0.2952,-0.2967,-0.3045,-0.3044,-0.3077,-0.3092,-0.3025,-0.3018,-0.2971,-0.2974,-0.2987,-0.2879,-0.289,-0.2919,-0.2943,-0.2879,-0.2835,-0.2815,-0.3056,-0.3056,-0.3056,-0.3056,0,0,-0.2587,-0.2755,-0.276,-0.2798,-0.292,-0.2936,-0.295,-0.2957,-0.2942,-0.2957,-0.2903,-0.2864,-0.2856,-0.2834,-0.2835,-0.2787,-0.2695,-0.2813,-0.2811,-0.2773,-0.2561,-0.2495,-0.2467,-0.2719,-0.2715,-0.2712,-0.258,0,-0.2525,-0.2597,-0.2696,-0.2718,-0.2759,-0.284,-0.2842,-0.2862,-0.2879,-0.2848,-0.2825,-0.2784,-0.2811,-0.2793,-0.274,-0.2707,-0.2635,-0.2727,-0.2618,-0.2613,-0.2569,-0.2438,-0.2335,-0.2199,-0.256,-0.2557,-0.2554,0,-0.248,-0.254,-0.2563,-0.2642,-0.266,-0.2678,-0.2681,-0.2695,-0.2692,-0.2702,-0.2662,-0.2669,-0.259,-0.2637,-0.2512,-0.2576,-0.2533,-0.2512,-0.2508,-0.2414,-0.2506,-0.2313,-0.2149,-0.2142,-0.2523,-0.2525,-0.2528,0,-0.2347,-0.2438,-0.244,-0.2478,-0.2584,-0.2571,-0.2601,-0.2626,-0.2626,-0.26,-0.2601,-0.2526,-0.2499,-0.243,-0.2406,-0.2454,-0.227,-0.235,-0.2229,-0.2228,-0.2091,-0.2082,-0.1898,-0.2196,-0.2197,-0.2197,-0.2197,0,-0.2272,-0.2276,-0.2378,-0.2395,-0.237,-0.2474,-0.244,-0.2466,-0.2491,-0.2477,-0.2505,-0.2466,-0.2443,-0.2373,-0.2342,-0.2208,-0.2219,-0.2146,-0.2155,-0.2091,-0.2084,-0.2035,-0.2083,-0.2192,-0.2193,-0.2194,-0.2195,0,-0.2157,-0.2229,-0.2239,-0.2311,-0.2327,-0.2309,-0.2382,-0.2376,-0.2411,-0.2393,-0.2389,-0.2394,-0.2302,-0.2262,-0.2149,-0.2118,-0.1967,-0.1958,-0.1888,-0.1887,-0.1781,-0.1834,-0.1627,-0.1583,-0.1794,-0.1791,-0.1789,0,-0.2108,-0.2106,-0.216,-0.2168,-0.2204,-0.2214,-0.2241,-0.2314,-0.2335,-0.2344,-0.2331,-0.2251,-0.2165,-0.1984,-0.1894,-0.1768,-0.181,-0.1623,-0.1669,-0.1681,-0.1749,-0.1812,-0.1797,-0.151,-0.1505,-0.1502,-0.1499,0,-0.2,-0.2015,-0.2034,-0.2052,-0.2076,-0.2099,-0.2146,-0.2147,-0.2228,-0.2189,-0.213,-0.205,-0.1916,-0.1725,-0.1585,-0.1521,-0.1586,-0.1542,-0.1551,-0.146,-0.1513,-0.1509,-0.1729,-0.1465,-0.1469,-0.1471,-0.1473,-0.1474,-0.1901,-0.1881,-0.1909,-0.1916,-0.195,-0.1961,-0.1869,-0.1921,-0.1869,-0.1709,-0.1842,-0.1569,-0.1589,-0.1361,-0.1311,-0.121,-0.1311,-0.1189,-0.124,-0.1295,-0.1256,-0.1395,-0.1155,-0.1156,-0.1158,-0.1159,-0.116,0,-0.1779,-0.1778,-0.1779,-0.1771,-0.1734,-0.1799,-0.1779,-0.1633,-0.1447,-0.1325,-0.1174,-0.1028,-0.0953,-0.0973,-0.0984,-0.0937,-0.0953,-0.0935,-0.1,-0.0991,-0.108,-0.1071,-0.0803,-0.0803,-0.0803,-0.0803,-0.0803,-0.0803,-0.1718,-0.168,-0.1686,-0.1564,-0.1529,-0.136,-0.1267,-0.1076,-0.0903,-0.0542,-0.0296,-0.0216,-0.0496,-0.0808,-0.0862,-0.0829,-0.0854,-0.0809,-0.0875,-0.0964,-0.0994,-0.1022,-0.1021,-0.0747,-0.0747,-0.0732,-0.0732,-0.0732]},{"header":{"parameterUnit":"m.s-1","parameterCategory":2,"la1":30.2991,"la2":30.254,"lo1":-89.0895,"lo2":-89.0444,"dy":0.0017,"dx":0.0017,"nx":28,"ny":28,"refTime":"2023-10-18T03:00:00:Z","depth":"0","parameterNumber":3,"parameterNumberName":"V-component_of_CURRENTS"},"data":[0,0,0,0,0,0,0,0,0,0,0,0,0,0,0,0,0,0,0,0,0,0,0,0,0,0,0,0,0,0,0,0,0,0,0,0,0,0,0,0,0,0,0,0,0,0,0,0,0,0,0,0,0,0,0,0,0,0,0.0081,0.0082,0,0.0236,0.0238,0.024,0.0374,0.0376,0.0377,0.0378,0.0601,0.0606,0.061,0,0,0,0,0,0,0,0,0,0,0,0,0,-0.0086,-0.0084,0.008,0.0082,0.0084,0.0236,0.0238,0.024,0.0374,0.0376,0.0378,0.0379,0.06,0.0605,0.0611,0,0,0,0,0,0,0,0,0,0,0,0,0,0.002,-0.0083,0.008,0.0168,0.0178,0.0235,0.0238,0.0241,0.0374,0.0376,0.0378,0.038,0.0598,0.0605,0.0611,0.0612,0,0,0.0633,0.0636,0,0,0,0,0,0,0,0,0.0014,0.0026,0.0153,0.0162,0.0173,0.0287,0.0261,0.0368,0.0373,0.0301,0.0379,0.0381,0.05,0.0515,0.054,0.0623,0.0632,0.0633,0.0637,0.064,0.0642,0,0,0,0,0,0,0,0.0007,0.0021,0.0143,0.0155,0.0167,0.0205,0.0222,0.0282,0.0389,0.0307,0.0317,0.0331,0.0506,0.0533,0.0547,0.0635,0.0633,0.0639,0.0644,0.0646,0.0797,0.0796,0,0,0,0,0,0,-0.0018,0.0013,0.0138,0.0148,0.0096,0.0206,0.0226,0.0249,0.0387,0.0409,0.0329,0.0337,0.052,0.0539,0.0555,0.0626,0.064,0.0647,0.0651,0.0797,0.0797,0.0796,0,0,0,0,0,0,-0.0022,-0.0008,0.0132,0.0083,0.0103,0.0206,0.0232,0.0251,0.0284,0.0403,0.0427,0.0343,0.0523,0.0546,0.0608,0.0633,0.065,0.0656,0.0797,0.0797,0.0796,0.0728,0,0,0,0,0,0,-0.0027,-0.001,-0.0013,0.0081,0.0105,0.0162,0.023,0.0253,0.0289,0.03,0.0422,0.0445,0.0526,0.0597,0.0615,0.0643,0.0662,0.0797,0.0797,0.0797,0.073,0.0725,0.0721,0,0,0,0,0,-0.0034,-0.0043,-0.0014,0.0001,0.0102,0.0161,0.0176,0.0257,0.0286,0.0295,0.0376,0.0441,0.0609,0.0602,0.0623,0.0654,0.0797,0.0797,0.0797,0.0732,0.0726,0.0721,0,0,0,0,0,0,-0.0131,-0.0028,0.0006,0.0025,0.0084,0.0183,0.0191,0.0241,0.0309,0.0321,0.0431,0.0459,0.0524,0.0584,0.0574,0.0694,0.0717,0.0721,0.0661,0.0656,0.0651,0.0631,0.0668,0,0,0,0,0,-0.0154,-0.0128,-0.0033,-0.0027,0.0003,0.0089,0.0118,0.0175,0.025,0.0283,0.0363,0.0452,0.0535,0.0589,0.0657,0.0717,0.073,0.0752,0.0747,0.0742,0.0739,0.0727,0.072,0.0795,0.0795,0.0795,0,0,-0.0198,-0.0137,-0.0127,-0.0046,0.0006,0.0058,0.0113,0.0152,0.0202,0.0294,0.0363,0.0426,0.054,0.0614,0.0651,0.0675,0.0733,0.0742,0.0738,0.0737,0.0726,0.0718,0.0711,0.0795,0.0795,0.0795,0,0,-0.0259,-0.0212,-0.02,-0.0141,-0.0063,0.0005,0.0011,0.0105,0.0154,0.0217,0.0302,0.0373,0.0488,0.0585,0.0651,0.0655,0.0693,0.0676,0.0659,0.0647,0.0641,0.0635,0.0656,0.0653,0.0692,0.0691,0.0691,0,-0.0313,-0.0275,-0.0197,-0.0157,-0.0117,-0.002,0.0005,0.0078,0.0176,0.0193,0.0231,0.0374,0.0486,0.0584,0.0615,0.065,0.0639,0.0674,0.0639,0.0633,0.0628,0.0652,0.0649,0.0688,0.0688,0.0689,0.0689,0,-0.0341,-0.0308,-0.0301,-0.0202,-0.0155,-0.0125,-0.0009,0.0027,0.0087,0.0151,0.0215,0.0341,0.0424,0.0486,0.0576,0.0609,0.0611,0.0615,0.0646,0.0616,0.0644,0.0642,0.0683,0.0684,0.0685,0.0686,0,0,-0.0443,-0.0342,-0.0334,-0.0309,-0.0177,-0.0146,-0.0073,0.0002,0.0021,0.0117,0.0133,0.0311,0.0338,0.0413,0.051,0.0548,0.0552,0.0572,0.0573,0.0583,0.0522,0.0577,0.0581,0.0519,0.0518,0.0517,0.056,0,-0.0484,-0.045,-0.0373,-0.0337,-0.0306,-0.0202,-0.015,-0.0071,-0.0001,0.0038,0.0157,0.0219,0.0326,0.0359,0.0408,0.0515,0.0539,0.0541,0.0561,0.0563,0.0604,0.0578,0.0625,0.0669,0.0558,0.0558,0.0558,0,-0.0509,-0.0485,-0.0471,-0.0411,-0.0392,-0.0354,-0.029,-0.0231,-0.0135,-0.0092,-0.0028,0.0057,0.0179,0.024,0.0372,0.0351,0.0427,0.0502,0.0504,0.0576,0.0613,0.0681,0.067,0.0793,0.0555,0.0556,0.0556,0,-0.0603,-0.0546,-0.0553,-0.052,-0.0431,-0.0429,-0.0385,-0.0293,-0.0257,-0.0185,-0.0162,-0.0057,0.0025,0.0099,0.0313,0.031,0.0429,0.0438,0.0551,0.0557,0.0617,0.063,0.072,0.0474,0.0474,0.0474,0.0474,0,-0.0651,-0.0649,-0.0607,-0.0601,-0.0623,-0.0531,-0.0536,-0.0481,-0.0407,-0.0353,-0.0249,-0.0172,-0.0015,0.0104,0.0241,0.0412,0.0365,0.0544,0.0562,0.0599,0.0609,0.0736,0.0774,0.0476,0.0475,0.0475,0.0475,0,-0.0721,-0.0692,-0.0698,-0.0663,-0.066,-0.0674,-0.0618,-0.0612,-0.0535,-0.0464,-0.044,-0.0267,-0.0098,0.0065,0.0239,0.0351,0.0567,0.0551,0.0611,0.0636,0.0839,0.087,0.0955,0.1035,0.0654,0.0655,0.0656,0,-0.0747,-0.076,-0.0762,-0.0783,-0.0769,-0.0772,-0.0767,-0.0689,-0.0644,-0.0481,-0.0439,-0.0274,-0.0076,0.0184,0.0369,0.0561,0.0649,0.0699,0.0714,0.0858,0.0906,0.0919,0.0982,0.0777,0.0779,0.0781,0.0782,0,-0.0796,-0.0804,-0.0819,-0.0861,-0.0878,-0.0869,-0.0835,-0.0778,-0.0643,-0.0515,-0.0273,-0.011,0.0102,0.0373,0.0558,0.0671,0.0788,0.074,0.0857,0.0985,0.1034,0.1119,0.0766,0.0798,0.0796,0.0795,0.0794,0.0794,-0.0834,-0.0868,-0.0892,-0.0916,-0.0938,-0.0874,-0.0771,-0.0668,-0.0484,-0.0147,-0.0056,0.031,0.0447,0.074,0.0835,0.0995,0.0941,0.107,0.1092,0.1089,0.118,0.0881,0.095,0.095,0.0949,0.0949,0.0948,0,-0.0849,-0.0881,-0.093,-0.0913,-0.0875,-0.0889,-0.0745,-0.0568,-0.0229,0.0053,0.039,0.0852,0.1032,0.1113,0.1232,0.135,0.1374,0.1398,0.1431,0.1475,0.1191,0.1213,0.1379,0.1379,0.1379,0.1379,0.1379,0.1379,-0.0856,-0.0894,-0.0904,-0.0819,-0.0782,-0.0618,-0.0464,-0.0213,0.0039,0.0603,0.1011,0.1312,0.1403,0.1506,0.1629,0.1654,0.178,0.174,0.1807,0.162,0.1591,0.1564,0.1596,0.184,0.184,0.2104,0.2107,0.2109]}],[{"header":{"parameterUnit":"m.s-1","parameterCategory":2,"la1":30.2991,"la2":30.254,"lo1":-89.0895,"lo2":-89.0444,"dy":0.0017,"dx":0.0017,"nx":28,"ny":28,"refTime":"2023-10-18T03:00:00:Z","depth":"2","parameterNumber":2,"parameterNumberName":"U-component_of_CURRENTS"},"data":[0,0,0,0,0,0,0,0,0,0,0,0,0,0,0,0,0,0,0,0,0,0,0,0,0,0,0,0,0,0,0,0,0,0,0,0,0,0,0,0,0,0,0,0,0,0,0,0,0,0,0,0,0,0,0,0,0,0,-0.2364,-0.2365,0,-0.2433,-0.2433,-0.2434,-0.2411,-0.241,-0.2409,-0.2408,-0.247,-0.2472,-0.2475,0,0,0,0,0,0,0,0,0,0,0,0,0,-0.2276,-0.2277,-0.2364,-0.2365,-0.2367,-0.2433,-0.2433,-0.2434,-0.2411,-0.241,-0.2409,-0.2408,-0.2469,-0.2472,-0.2475,0,0,0,0,0,0,0,0,0,0,0,0,0,-0.232,-0.2277,-0.2364,-0.2368,-0.237,-0.2433,-0.2433,-0.2434,-0.2411,-0.241,-0.2408,-0.2407,-0.2468,-0.2472,-0.2475,-0.2526,0,0,-0.2487,-0.2488,0,0,0,0,0,0,0,0,-0.2318,-0.2323,-0.2366,-0.2368,-0.237,-0.2417,-0.2425,-0.2467,-0.2412,-0.2389,-0.2408,-0.2406,-0.2457,-0.2461,-0.2469,-0.2529,-0.2532,-0.2487,-0.2489,-0.2491,-0.2492,0,0,0,0,0,0,0,-0.2315,-0.232,-0.2385,-0.2368,-0.237,-0.2389,-0.2392,-0.2433,-0.2425,-0.2391,-0.2391,-0.2409,-0.2456,-0.2465,-0.247,-0.2533,-0.2487,-0.249,-0.2493,-0.2494,-0.2613,-0.2614,0,0,0,0,0,0,-0.2317,-0.2317,-0.2383,-0.2388,-0.2347,-0.2392,-0.2395,-0.2398,-0.2424,-0.2429,-0.241,-0.2408,-0.2459,-0.2466,-0.2472,-0.2507,-0.2491,-0.2494,-0.2497,-0.2612,-0.2613,-0.2614,0,0,0,0,0,0,-0.2315,-0.2322,-0.238,-0.236,-0.2369,-0.2395,-0.2399,-0.2401,-0.2418,-0.244,-0.2443,-0.2426,-0.2458,-0.2467,-0.2516,-0.251,-0.2496,-0.25,-0.2611,-0.2612,-0.2614,-0.2594,0,0,0,0,0,0,-0.2311,-0.232,-0.2324,-0.2359,-0.2371,-0.24,-0.2401,-0.2403,-0.2434,-0.2431,-0.2456,-0.2459,-0.2458,-0.251,-0.252,-0.2515,-0.2503,-0.261,-0.2612,-0.2613,-0.2593,-0.2594,-0.2595,0,0,0,0,0,-0.2308,-0.2317,-0.2323,-0.2332,-0.2374,-0.24,-0.2406,-0.2417,-0.2436,-0.243,-0.2467,-0.2459,-0.2526,-0.2515,-0.2526,-0.2521,-0.2609,-0.2611,-0.2613,-0.2593,-0.2594,-0.2595,0,0,0,0,0,0,-0.229,-0.2318,-0.2324,-0.2344,-0.2363,-0.2398,-0.2411,-0.2432,-0.2459,-0.2468,-0.2488,-0.2494,-0.2521,-0.2543,-0.253,-0.2562,-0.2561,-0.2565,-0.2542,-0.2543,-0.2544,-0.25,-0.2506,0,0,0,0,0,-0.2289,-0.2295,-0.2327,-0.2343,-0.2356,-0.2391,-0.241,-0.242,-0.2454,-0.2464,-0.2489,-0.252,-0.254,-0.2559,-0.2574,-0.2618,-0.2587,-0.2618,-0.2619,-0.262,-0.2592,-0.2548,-0.2541,-0.2621,-0.2621,-0.2621,0,0,-0.229,-0.2308,-0.2312,-0.2339,-0.2361,-0.2379,-0.2396,-0.2426,-0.244,-0.2472,-0.2504,-0.2525,-0.2552,-0.2573,-0.2589,-0.2592,-0.2586,-0.2622,-0.2622,-0.2594,-0.2549,-0.2541,-0.2534,-0.2622,-0.2622,-0.2622,0,0,-0.2294,-0.2308,-0.2313,-0.2326,-0.2362,-0.2383,-0.2397,-0.2438,-0.2445,-0.2504,-0.2504,-0.2517,-0.2597,-0.2569,-0.258,-0.2605,-0.2585,-0.2631,-0.2607,-0.2566,-0.2558,-0.255,-0.2508,-0.2497,-0.2639,-0.2639,-0.2639,0,-0.229,-0.2299,-0.232,-0.233,-0.2345,-0.2387,-0.2399,-0.2421,-0.2471,-0.2478,-0.2513,-0.2564,-0.2579,-0.2566,-0.2567,-0.2598,-0.2584,-0.2598,-0.2562,-0.2554,-0.2546,-0.2505,-0.2493,-0.2638,-0.2638,-0.2638,-0.2638,0,-0.2291,-0.2302,-0.2311,-0.2329,-0.2349,-0.2364,-0.24,-0.2421,-0.247,-0.249,-0.2508,-0.253,-0.2546,-0.2559,-0.258,-0.2532,-0.2542,-0.2559,-0.2548,-0.2536,-0.2495,-0.2483,-0.2637,-0.2637,-0.2637,-0.2637,0,0,-0.2246,-0.2299,-0.2294,-0.2303,-0.2344,-0.2358,-0.2387,-0.2407,-0.242,-0.2468,-0.247,-0.2492,-0.2496,-0.2504,-0.251,-0.2481,-0.2418,-0.2506,-0.2504,-0.2444,-0.2333,-0.2257,-0.2236,-0.244,-0.2438,-0.2436,-0.2328,0,-0.2228,-0.2248,-0.2278,-0.2293,-0.2304,-0.2343,-0.2363,-0.239,-0.243,-0.2442,-0.2446,-0.2457,-0.2479,-0.2487,-0.2455,-0.2432,-0.2384,-0.2445,-0.2371,-0.2368,-0.2284,-0.2218,-0.2078,-0.1962,-0.2316,-0.2313,-0.2312,0,-0.2189,-0.2213,-0.2228,-0.2269,-0.2276,-0.2294,-0.232,-0.2344,-0.2366,-0.2398,-0.24,-0.2417,-0.2372,-0.2403,-0.2321,-0.2371,-0.2335,-0.2317,-0.2313,-0.223,-0.2266,-0.2032,-0.1926,-0.229,-0.2292,-0.2294,-0.2295,0,-0.212,-0.2162,-0.2173,-0.2184,-0.2246,-0.2254,-0.2286,-0.2322,-0.2336,-0.2349,-0.2368,-0.2338,-0.2322,-0.2281,-0.225,-0.2289,-0.216,-0.2208,-0.2092,-0.2088,-0.194,-0.1926,-0.2111,-0.2111,-0.2111,-0.2111,-0.2112,0,-0.2066,-0.2067,-0.2143,-0.2143,-0.2151,-0.2211,-0.2219,-0.2249,-0.2286,-0.2287,-0.2322,-0.2305,-0.2294,-0.224,-0.2214,-0.2098,-0.2121,-0.2044,-0.2036,-0.1934,-0.1921,-0.2191,-0.2202,-0.2107,-0.2108,-0.2109,-0.211,0,-0.1975,-0.2028,-0.2035,-0.2099,-0.2116,-0.2116,-0.2179,-0.2193,-0.2239,-0.2237,-0.2239,-0.2255,-0.2178,-0.2146,-0.2063,-0.2031,-0.1947,-0.1896,-0.1775,-0.1753,-0.1917,-0.1928,-0.1752,-0.1748,-0.1745,-0.1742,-0.174,0,-0.1929,-0.1926,-0.1979,-0.1989,-0.2015,-0.2042,-0.2068,-0.2144,-0.2161,-0.2197,-0.218,-0.213,-0.2061,-0.1914,-0.1821,-0.1708,-0.181,-0.1543,-0.1572,-0.186,-0.1871,-0.1888,-0.1904,-0.138,-0.1374,-0.137,-0.1367,0,-0.1831,-0.185,-0.1867,-0.1882,-0.1908,-0.193,-0.1971,-0.1981,-0.206,-0.2062,-0.203,-0.1978,-0.1842,-0.1648,-0.1515,-0.1451,-0.1557,-0.1454,-0.1745,-0.1503,-0.1502,-0.1516,-0.1544,-0.133,-0.1333,-0.1336,-0.1338,-0.134,-0.1746,-0.173,-0.1752,-0.1749,-0.1783,-0.1781,-0.1742,-0.18,-0.1788,-0.1755,-0.1832,-0.1712,-0.1647,-0.1352,-0.1236,-0.1146,-0.1267,-0.1238,-0.1253,-0.1272,-0.1258,-0.1252,-0.1031,-0.1032,-0.1034,-0.1036,-0.1037,0,-0.1628,-0.1624,-0.1619,-0.16,-0.1566,-0.1631,-0.1641,-0.1579,-0.1503,-0.1536,-0.1491,-0.1318,-0.1165,-0.11,-0.0887,-0.0837,-0.0855,-0.0816,-0.0852,-0.0888,-0.0921,-0.0893,-0.0566,-0.0564,-0.0563,-0.0562,0,0,-0.1566,-0.1511,-0.1497,-0.1373,-0.1362,-0.1262,-0.1229,-0.1177,-0.1157,-0.1076,-0.104,-0.1136,-0.1098,-0.0867,-0.0773,-0.0633,-0.0764,-0.0595,-0.0971,-0.1051,-0.1082,-0.1153,-0.1148,0,0,0,0,0]},{"header":{"parameterUnit":"m.s-1","parameterCategory":2,"la1":30.2991,"la2":30.254,"lo1":-89.0895,"lo2":-89.0444,"dy":0.0017,"dx":0.0017,"nx":28,"ny":28,"refTime":"2023-10-18T03:00:00:Z","depth":"2","parameterNumber":3,"parameterNumberName":"V-component_of_CURRENTS"},"data":[0,0,0,0,0,0,0,0,0,0,0,0,0,0,0,0,0,0,0,0,0,0,0,0,0,0,0,0,0,0,0,0,0,0,0,0,0,0,0,0,0,0,0,0,0,0,0,0,0,0,0,0,0,0,0,0,0,0,-0.0417,-0.0417,0,-0.0386,-0.0386,-0.0385,-0.0358,-0.0357,-0.0357,-0.0357,-0.0201,-0.0198,-0.0194,0,0,0,0,0,0,0,0,0,0,0,0,0,-0.0452,-0.0451,-0.0418,-0.0417,-0.0417,-0.0386,-0.0386,-0.0385,-0.0358,-0.0357,-0.0357,-0.0356,-0.0203,-0.0198,-0.0194,0,0,0,0,0,0,0,0,0,0,0,0,0,-0.0431,-0.0451,-0.0418,-0.0399,-0.0397,-0.0386,-0.0386,-0.0385,-0.0358,-0.0357,-0.0357,-0.0356,-0.0204,-0.0199,-0.0193,-0.017,0,0,-0.0176,-0.0173,0,0,0,0,0,0,0,0,-0.0432,-0.043,-0.0402,-0.04,-0.0398,-0.0375,-0.0341,-0.0307,-0.0358,-0.0373,-0.0357,-0.0356,-0.0248,-0.0239,-0.0237,-0.0162,-0.0156,-0.0175,-0.0172,-0.0169,-0.0168,0,0,0,0,0,0,0,-0.0434,-0.0431,-0.0406,-0.0401,-0.0399,-0.0391,-0.0387,-0.0335,-0.0312,-0.0372,-0.037,-0.0365,-0.0246,-0.0242,-0.0232,-0.0154,-0.0175,-0.017,-0.0167,-0.0165,-0.0008,-0.0008,0,0,0,0,0,0,-0.0437,-0.0432,-0.0407,-0.0405,-0.0413,-0.0391,-0.0387,-0.0383,-0.0316,-0.0306,-0.0366,-0.0364,-0.0252,-0.0239,-0.0227,-0.0164,-0.0169,-0.0164,-0.0161,-0.0009,-0.0008,-0.0007,0,0,0,0,0,0,-0.0438,-0.0435,-0.0408,-0.0417,-0.0413,-0.0391,-0.0387,-0.0383,-0.0373,-0.0312,-0.03,-0.036,-0.0251,-0.0235,-0.0169,-0.0158,-0.0162,-0.0156,-0.001,-0.0009,-0.0008,-0.0057,0,0,0,0,0,0,-0.0439,-0.0435,-0.0436,-0.0417,-0.0413,-0.0406,-0.0387,-0.0383,-0.0371,-0.0369,-0.0302,-0.0288,-0.025,-0.0178,-0.0164,-0.0151,-0.0152,-0.0011,-0.0009,-0.0008,-0.0056,-0.0057,-0.0058,0,0,0,0,0,-0.044,-0.0446,-0.0436,-0.0433,-0.0413,-0.0406,-0.0404,-0.0386,-0.0372,-0.0374,-0.0318,-0.029,-0.0159,-0.0173,-0.0156,-0.0141,-0.0012,-0.001,-0.0008,-0.0055,-0.0057,-0.0058,0,0,0,0,0,0,-0.0462,-0.0443,-0.0432,-0.0431,-0.042,-0.0401,-0.0402,-0.0386,-0.0348,-0.0339,-0.0278,-0.0259,-0.0204,-0.0161,-0.0178,-0.0091,-0.0081,-0.0076,-0.0123,-0.0124,-0.0125,-0.0155,-0.0147,0,0,0,0,0,-0.0467,-0.0465,-0.0446,-0.0446,-0.0442,-0.042,-0.0415,-0.0403,-0.0368,-0.0352,-0.0303,-0.0242,-0.0186,-0.0146,-0.01,-0.0044,-0.0012,-0.0023,-0.0025,-0.0026,-0.0038,0.0029,0.0032,-0.0002,-0.0002,-0.0002,0,0,-0.0477,-0.0465,-0.0465,-0.045,-0.044,-0.0439,-0.0416,-0.0412,-0.0402,-0.0337,-0.0302,-0.0249,-0.0175,-0.0122,-0.0092,-0.008,0.0,-0.0024,-0.0026,-0.0037,0.0031,0.0034,0.0037,-0.0001,-0.0001,-0.0001,0,0,-0.05,-0.0485,-0.0492,-0.0486,-0.0471,-0.0456,-0.0454,-0.0431,-0.0413,-0.0371,-0.0322,-0.027,-0.0179,-0.0134,-0.0095,-0.0072,-0.0018,-0.0042,-0.0059,0.0006,0.0009,0.0012,0.0049,0.0056,-0.0031,-0.0031,-0.0031,0,-0.0514,-0.0515,-0.0495,-0.05,-0.0494,-0.0464,-0.0469,-0.0449,-0.0406,-0.0378,-0.0365,-0.024,-0.0193,-0.0115,-0.0112,-0.0078,-0.0031,-0.0062,0.0003,0.0007,0.001,0.0048,0.0056,-0.0033,-0.0033,-0.0033,-0.0033,0,-0.0544,-0.0542,-0.0547,-0.0539,-0.0529,-0.0532,-0.05,-0.0481,-0.0447,-0.0414,-0.0341,-0.0276,-0.0199,-0.0172,-0.0135,-0.0074,-0.0047,-0.0018,-0.0,0.001,0.005,0.0058,-0.0036,-0.0036,-0.0035,-0.0034,0,0,-0.0587,-0.057,-0.0574,-0.0571,-0.0549,-0.0546,-0.0523,-0.0488,-0.0462,-0.041,-0.0364,-0.0285,-0.0244,-0.0198,-0.0138,-0.0085,-0.0033,-0.0039,-0.0034,-0.0016,0.0108,0.0128,0.014,0.0026,0.0028,0.0029,0.0121,0,-0.0617,-0.0633,-0.061,-0.0618,-0.0623,-0.0582,-0.0561,-0.0521,-0.0472,-0.0421,-0.0344,-0.0284,-0.025,-0.0209,-0.015,-0.0061,-0.0008,-0.0062,0.0107,0.011,0.0117,0.0152,0.0138,0.022,0.013,0.0132,0.0133,0,-0.0658,-0.0659,-0.0675,-0.0648,-0.0645,-0.0642,-0.0595,-0.0572,-0.0492,-0.0448,-0.0371,-0.0305,-0.0225,-0.02,-0.005,-0.0074,0.0005,0.0069,0.0075,0.0114,0.0148,0.0199,0.0241,0.0148,0.0147,0.0146,0.0145,0,-0.0707,-0.0702,-0.0712,-0.071,-0.068,-0.067,-0.0648,-0.0582,-0.0555,-0.0468,-0.0431,-0.0315,-0.0255,-0.014,-0.0018,-0.0019,0.0146,0.0163,0.0253,0.0255,0.0283,0.0284,0.0266,0.0265,0.0265,0.0265,0.0265,0,-0.0753,-0.076,-0.0739,-0.0751,-0.0758,-0.0715,-0.0701,-0.0661,-0.0591,-0.0546,-0.0452,-0.0383,-0.0232,-0.0116,-0.0012,0.0148,0.0157,0.025,0.0288,0.0265,0.0264,0.0233,0.0228,0.0268,0.0268,0.0267,0.0266,0,-0.0807,-0.0795,-0.0809,-0.0788,-0.0787,-0.0794,-0.0758,-0.0742,-0.0667,-0.0606,-0.058,-0.0427,-0.0265,-0.0121,0.0071,0.0156,0.0298,0.0353,0.0298,0.0329,0.0358,0.0349,0.046,0.0462,0.0463,0.0464,0.0465,0,-0.0832,-0.0848,-0.0854,-0.0874,-0.0871,-0.087,-0.0869,-0.08,-0.077,-0.062,-0.0592,-0.042,-0.0277,-0.0007,0.0177,0.0366,0.0357,0.0446,0.0434,0.0355,0.0382,0.0371,0.0361,0.0449,0.0449,0.045,0.0451,0,-0.0878,-0.0883,-0.09,-0.0945,-0.0962,-0.0971,-0.0953,-0.0942,-0.0835,-0.0765,-0.0619,-0.0488,-0.0186,0.0049,0.0291,0.0392,0.0411,0.0465,0.0431,0.0395,0.0351,0.0374,0.0364,0.0456,0.0456,0.0455,0.0455,0.0455,-0.0911,-0.0942,-0.0971,-0.1014,-0.1041,-0.1061,-0.1059,-0.1017,-0.0967,-0.0827,-0.0681,-0.0461,-0.0188,0.0168,0.0352,0.0506,0.0502,0.0527,0.0522,0.0518,0.0494,0.0454,0.0573,0.0573,0.0573,0.0573,0.0573,0,-0.0946,-0.0986,-0.1034,-0.1089,-0.1133,-0.1122,-0.1105,-0.1066,-0.1007,-0.085,-0.0702,-0.04,-0.0118,0.0157,0.0431,0.0588,0.0565,0.0588,0.0539,0.0533,0.0528,0.0502,0.0585,0.0585,0.0585,0.0586,0,0,-0.0967,-0.1024,-0.1055,-0.1152,-0.1193,-0.1205,-0.1191,-0.1112,-0.0984,-0.0823,-0.0654,-0.0456,-0.0082,0.0096,0.0314,0.0468,0.0444,0.0463,0.044,0.0351,0.0344,0.0482,0.0435,0,0,0,0,0]}],[{"header":{"parameterUnit":"m.s-1","parameterCategory":2,"la1":30.2991,"la2":30.254,"lo1":-89.0895,"lo2":-89.0444,"dy":0.0017,"dx":0.0017,"nx":28,"ny":28,"refTime":"2023-10-18T03:00:00:Z","depth":"4","parameterNumber":2,"parameterNumberName":"U-component_of_CURRENTS"},"data":[0,0,0,0,0,0,0,0,0,0,0,0,0,0,0,0,0,0,0,0,0,0,0,0,0,0,0,0,0,0,0,0,0,0,0,0,0,0,0,0,0,0,0,0,0,0,0,0,0,0,0,0,0,0,0,0,0,0,-0.1525,-0.1525,0,-0.1569,-0.157,-0.157,-0.16,-0.1601,-0.1601,-0.1601,-0.1656,-0.1657,-0.1658,0,0,0,0,0,0,0,0,0,0,0,0,0,-0.149,-0.149,-0.1525,-0.1525,-0.1526,-0.1569,-0.157,-0.157,-0.16,-0.1601,-0.1601,-0.1601,-0.1655,-0.1657,-0.1658,0,0,0,0,0,0,0,0,0,0,0,0,0,-0.1518,-0.149,-0.1525,-0.1545,-0.1547,-0.1569,-0.157,-0.157,-0.16,-0.1601,-0.1601,-0.1601,-0.1655,-0.1657,-0.1659,-0.1668,0,0,-0.1665,-0.1666,0,0,0,0,0,0,0,0,-0.1516,-0.1519,-0.1542,-0.1544,-0.1546,-0.1578,-0.1577,-0.1603,-0.16,-0.1582,-0.1601,-0.1601,-0.163,-0.1634,-0.1644,-0.1671,-0.1673,-0.1665,-0.1666,-0.1667,-0.1668,0,0,0,0,0,0,0,-0.1514,-0.1518,-0.1544,-0.1542,-0.1545,-0.1559,-0.1564,-0.1582,-0.1606,-0.1583,-0.1585,-0.1588,-0.1631,-0.1641,-0.1645,-0.1674,-0.1665,-0.1667,-0.1668,-0.1669,-0.1767,-0.1768,0,0,0,0,0,0,-0.1505,-0.1516,-0.1542,-0.1545,-0.153,-0.156,-0.1564,-0.1569,-0.1605,-0.161,-0.1588,-0.1589,-0.1638,-0.1643,-0.1647,-0.1698,-0.1667,-0.1669,-0.167,-0.1765,-0.1767,-0.1769,0,0,0,0,0,0,-0.1504,-0.1507,-0.1541,-0.153,-0.1535,-0.156,-0.1565,-0.157,-0.1604,-0.1608,-0.1614,-0.1619,-0.1638,-0.1644,-0.1688,-0.1699,-0.167,-0.1672,-0.1764,-0.1766,-0.1768,-0.1776,0,0,0,0,0,0,-0.1503,-0.1506,-0.1521,-0.1529,-0.1535,-0.1564,-0.1565,-0.157,-0.1603,-0.1606,-0.1637,-0.1641,-0.1639,-0.1685,-0.169,-0.1701,-0.1673,-0.1762,-0.1765,-0.1767,-0.1774,-0.1778,-0.1781,0,0,0,0,0,-0.1501,-0.1521,-0.1521,-0.1525,-0.155,-0.1565,-0.157,-0.1588,-0.1604,-0.1621,-0.1648,-0.1641,-0.1704,-0.1688,-0.1693,-0.1705,-0.1761,-0.1764,-0.1767,-0.1772,-0.1777,-0.1781,0,0,0,0,0,0,-0.1526,-0.1526,-0.1527,-0.1549,-0.1559,-0.1569,-0.1595,-0.1605,-0.1641,-0.1655,-0.1662,-0.1668,-0.1704,-0.1714,-0.1696,-0.1744,-0.173,-0.1735,-0.1732,-0.1737,-0.1741,-0.1732,-0.1675,0,0,0,0,0,-0.1533,-0.1545,-0.1545,-0.1567,-0.1575,-0.159,-0.1606,-0.1615,-0.1638,-0.1656,-0.1676,-0.1702,-0.1718,-0.1736,-0.1752,-0.1786,-0.1776,-0.1799,-0.1802,-0.1805,-0.1804,-0.1816,-0.182,-0.1779,-0.1779,-0.1779,0,0,-0.1551,-0.1552,-0.1562,-0.1573,-0.1588,-0.1594,-0.1602,-0.1631,-0.164,-0.1656,-0.1697,-0.1716,-0.1731,-0.176,-0.1778,-0.1773,-0.1808,-0.1809,-0.1811,-0.1809,-0.1819,-0.1823,-0.1826,-0.1781,-0.1781,-0.178,0,0,-0.1576,-0.1593,-0.1602,-0.1607,-0.1622,-0.1626,-0.1638,-0.1659,-0.1677,-0.1711,-0.1721,-0.1751,-0.1789,-0.1792,-0.1799,-0.1839,-0.1825,-0.1853,-0.1869,-0.188,-0.1883,-0.1885,-0.1855,-0.1854,-0.1859,-0.1859,-0.1859,0,-0.1597,-0.1601,-0.1611,-0.1615,-0.1624,-0.164,-0.165,-0.1665,-0.1699,-0.1723,-0.1727,-0.179,-0.1795,-0.1824,-0.1832,-0.1843,-0.1842,-0.1845,-0.1882,-0.1885,-0.1887,-0.1855,-0.1855,-0.186,-0.186,-0.186,-0.186,0,-0.1604,-0.162,-0.1633,-0.1633,-0.1649,-0.1665,-0.1673,-0.1706,-0.1733,-0.1746,-0.1796,-0.1809,-0.1847,-0.1851,-0.185,-0.1878,-0.1867,-0.1879,-0.1863,-0.1891,-0.1856,-0.1856,-0.1861,-0.1861,-0.186,-0.186,0,0,-0.16,-0.1632,-0.1633,-0.1643,-0.1659,-0.1672,-0.1702,-0.173,-0.1763,-0.1793,-0.1831,-0.1853,-0.1876,-0.1885,-0.1894,-0.19,-0.1896,-0.1902,-0.1902,-0.1857,-0.19,-0.1761,-0.1746,-0.1926,-0.1926,-0.1927,-0.186,0,-0.1597,-0.1616,-0.1631,-0.1654,-0.1661,-0.1694,-0.1721,-0.1755,-0.1788,-0.1829,-0.185,-0.1885,-0.1883,-0.1907,-0.1914,-0.1906,-0.19,-0.1911,-0.1893,-0.1891,-0.1753,-0.1743,-0.1929,-0.1859,-0.1859,-0.1859,-0.1859,0,-0.1565,-0.1589,-0.1618,-0.1666,-0.1677,-0.17,-0.1761,-0.1784,-0.184,-0.1871,-0.1915,-0.1932,-0.1946,-0.1941,-0.1933,-0.1948,-0.1924,-0.1909,-0.1906,-0.1773,-0.1751,-0.1834,-0.1857,-0.1857,-0.1857,-0.1858,-0.1858,0,-0.1519,-0.1567,-0.1598,-0.1609,-0.1669,-0.171,-0.1749,-0.1809,-0.1837,-0.19,-0.1927,-0.196,-0.1966,-0.1964,-0.1921,-0.1942,-0.1892,-0.1915,-0.1762,-0.1751,-0.1894,-0.1892,-0.1904,-0.1904,-0.1904,-0.1905,-0.1905,0,-0.147,-0.1493,-0.1591,-0.1599,-0.1647,-0.1702,-0.1757,-0.1803,-0.187,-0.1887,-0.1947,-0.1946,-0.1977,-0.195,-0.1925,-0.1815,-0.1893,-0.1746,-0.1725,-0.1896,-0.1896,-0.1891,-0.189,-0.1902,-0.1903,-0.1903,-0.1904,0,-0.1386,-0.1451,-0.1487,-0.1584,-0.1618,-0.1651,-0.1746,-0.1781,-0.1857,-0.1879,-0.1897,-0.1934,-0.1883,-0.1876,-0.1843,-0.1787,-0.172,-0.1666,-0.1811,-0.1803,-0.1572,-0.1573,-0.1491,-0.1486,-0.1481,-0.1477,-0.1474,0,-0.1339,-0.1353,-0.146,-0.1492,-0.1539,-0.161,-0.1653,-0.1753,-0.1776,-0.1841,-0.1827,-0.182,-0.1818,-0.1639,-0.1664,-0.1582,-0.1571,-0.1534,-0.1583,-0.1542,-0.1531,-0.1539,-0.1546,-0.1466,-0.1465,-0.1464,-0.1463,0,-0.1247,-0.1302,-0.1342,-0.1398,-0.1458,-0.1502,-0.1569,-0.1578,-0.1669,-0.1764,-0.1695,-0.1654,-0.1581,-0.1529,-0.1462,-0.142,-0.1562,-0.1486,-0.1497,-0.1542,-0.1511,-0.1506,-0.1519,-0.1447,-0.1449,-0.1451,-0.1451,0,-0.1184,-0.1189,-0.1249,-0.1282,-0.1347,-0.1351,-0.1415,-0.1431,-0.1463,-0.1553,-0.1519,-0.151,-0.155,-0.1441,-0.1386,-0.1319,-0.1313,-0.1295,-0.1316,-0.1334,-0.1314,-0.1253,-0.1073,0,0,0,0,0,-0.1111,-0.11,-0.1125,-0.1145,-0.1201,-0.1223,-0.1328,-0.1399,-0.15,-0.1408,-0.1459,-0.1383,-0.1296,-0.1298,-0.119,-0.1314,-0.1319,-0.1187,-0.1311,-0.1358,-0.1376,-0.1367,0,0,0,0,0,0,-0.1061,-0.1082,-0.1075,-0.101,-0.0995,-0.1028,-0.1087,-0.1171,-0.1131,-0.1244,-0.1192,-0.1284,-0.1206,-0.1299,-0.1145,-0.1147,-0.1197,-0.1202,-0.1198,-0.1347,-0.1364,-0.1379,-0.1376,0,0,0,0,0]},{"header":{"parameterUnit":"m.s-1","parameterCategory":2,"la1":30.2991,"la2":30.254,"lo1":-89.0895,"lo2":-89.0444,"dy":0.0017,"dx":0.0017,"nx":28,"ny":28,"refTime":"2023-10-18T03:00:00:Z","depth":"4","parameterNumber":3,"parameterNumberName":"V-component_of_CURRENTS"},"data":[0,0,0,0,0,0,0,0,0,0,0,0,0,0,0,0,0,0,0,0,0,0,0,0,0,0,0,0,0,0,0,0,0,0,0,0,0,0,0,0,0,0,0,0,0,0,0,0,0,0,0,0,0,0,0,0,0,0,-0.0372,-0.0372,0,-0.0382,-0.0383,-0.0383,-0.0386,-0.0385,-0.0385,-0.0385,-0.0328,-0.0327,-0.0326,0,0,0,0,0,0,0,0,0,0,0,0,0,-0.0366,-0.0366,-0.0372,-0.0372,-0.0372,-0.0382,-0.0383,-0.0383,-0.0386,-0.0385,-0.0385,-0.0385,-0.0329,-0.0327,-0.0326,0,0,0,0,0,0,0,0,0,0,0,0,0,-0.0373,-0.0366,-0.0372,-0.0373,-0.0373,-0.0382,-0.0383,-0.0383,-0.0386,-0.0385,-0.0385,-0.0385,-0.0329,-0.0327,-0.0325,-0.0319,0,0,-0.0319,-0.0319,0,0,0,0,0,0,0,0,-0.0372,-0.0373,-0.0373,-0.0373,-0.0373,-0.0381,-0.036,-0.0358,-0.0386,-0.0382,-0.0385,-0.0385,-0.0339,-0.0336,-0.0342,-0.0316,-0.0314,-0.0319,-0.0318,-0.0317,-0.0317,0,0,0,0,0,0,0,-0.0372,-0.0373,-0.0377,-0.0373,-0.0373,-0.0378,-0.0378,-0.036,-0.0362,-0.0383,-0.0383,-0.0382,-0.0339,-0.0344,-0.034,-0.0313,-0.0319,-0.0317,-0.0316,-0.0315,-0.0282,-0.0282,0,0,0,0,0,0,-0.0368,-0.0372,-0.0377,-0.0378,-0.0371,-0.0378,-0.0379,-0.038,-0.0364,-0.0361,-0.0382,-0.0382,-0.0347,-0.0343,-0.0338,-0.0337,-0.0317,-0.0315,-0.0314,-0.0282,-0.0282,-0.0283,0,0,0,0,0,0,-0.0367,-0.0368,-0.0377,-0.0374,-0.0375,-0.0378,-0.038,-0.038,-0.0388,-0.0364,-0.036,-0.0389,-0.0347,-0.0341,-0.0325,-0.0334,-0.0314,-0.0313,-0.0282,-0.0282,-0.0282,-0.0328,0,0,0,0,0,0,-0.0367,-0.0368,-0.0373,-0.0374,-0.0375,-0.0389,-0.038,-0.0381,-0.0387,-0.0387,-0.0368,-0.0363,-0.0346,-0.0329,-0.0323,-0.0331,-0.0311,-0.0281,-0.0282,-0.0282,-0.0326,-0.033,-0.0334,0,0,0,0,0,-0.0367,-0.0377,-0.0374,-0.0374,-0.038,-0.0389,-0.0391,-0.0393,-0.0387,-0.0397,-0.038,-0.0363,-0.0329,-0.0327,-0.0321,-0.0328,-0.0281,-0.0282,-0.0282,-0.0325,-0.033,-0.0334,0,0,0,0,0,0,-0.0379,-0.0378,-0.0374,-0.0383,-0.0388,-0.0389,-0.0399,-0.0396,-0.0393,-0.0391,-0.0365,-0.0359,-0.0352,-0.0331,-0.033,-0.032,-0.0303,-0.0302,-0.0337,-0.0341,-0.0345,-0.0338,-0.0309,0,0,0,0,0,-0.0383,-0.0389,-0.0388,-0.0397,-0.0398,-0.0398,-0.0403,-0.0405,-0.0399,-0.0398,-0.0383,-0.0364,-0.0351,-0.0339,-0.0327,-0.0315,-0.0266,-0.0316,-0.032,-0.0323,-0.0313,-0.0227,-0.0222,-0.0285,-0.0285,-0.0285,0,0,-0.0391,-0.039,-0.0395,-0.04,-0.0403,-0.0417,-0.0401,-0.0413,-0.0425,-0.039,-0.0399,-0.0379,-0.0352,-0.0347,-0.0341,-0.0329,-0.0286,-0.0324,-0.0327,-0.0315,-0.0227,-0.0221,-0.0215,-0.0285,-0.0285,-0.0285,0,0,-0.0412,-0.0409,-0.0423,-0.0429,-0.0434,-0.0434,-0.0438,-0.0441,-0.0443,-0.0451,-0.0425,-0.0401,-0.0395,-0.0365,-0.0352,-0.0363,-0.0311,-0.0368,-0.0374,-0.0291,-0.0285,-0.0278,-0.0233,-0.0222,-0.0364,-0.0364,-0.0364,0,-0.0423,-0.0437,-0.043,-0.0446,-0.0451,-0.0443,-0.046,-0.0467,-0.0466,-0.0452,-0.0463,-0.0417,-0.0402,-0.0362,-0.0377,-0.037,-0.0324,-0.0362,-0.0294,-0.0287,-0.0279,-0.0234,-0.0221,-0.0366,-0.0366,-0.0366,-0.0366,0,-0.0456,-0.0468,-0.0477,-0.0493,-0.0498,-0.0513,-0.0513,-0.0516,-0.0517,-0.0508,-0.048,-0.0454,-0.0413,-0.0417,-0.0409,-0.0349,-0.0336,-0.0312,-0.0281,-0.0275,-0.0229,-0.0214,-0.037,-0.0369,-0.0368,-0.0368,0,0,-0.0481,-0.0496,-0.0503,-0.051,-0.0522,-0.0529,-0.0541,-0.0535,-0.0522,-0.0522,-0.0491,-0.0479,-0.0439,-0.042,-0.0389,-0.0332,-0.0264,-0.0308,-0.0302,-0.026,-0.0099,-0.0124,-0.0111,-0.022,-0.0217,-0.0215,-0.0097,0,-0.051,-0.0544,-0.0541,-0.0571,-0.0586,-0.0573,-0.0579,-0.0569,-0.0555,-0.0524,-0.0479,-0.0449,-0.0447,-0.0421,-0.0362,-0.0286,-0.0224,-0.0299,-0.0113,-0.0108,-0.0127,-0.0094,-0.0206,-0.0086,-0.0082,-0.008,-0.0078,0,-0.0546,-0.056,-0.0595,-0.0595,-0.0598,-0.0614,-0.0594,-0.0598,-0.0548,-0.0529,-0.0472,-0.0432,-0.0359,-0.0356,-0.0208,-0.0254,-0.0179,-0.0124,-0.0117,-0.0108,-0.0105,-0.0085,-0.0052,-0.0054,-0.0056,-0.0057,-0.0059,0,-0.0569,-0.0594,-0.0618,-0.0627,-0.0632,-0.0635,-0.0632,-0.0598,-0.0586,-0.0519,-0.049,-0.0392,-0.0343,-0.0231,-0.0144,-0.0158,0.0021,0.0026,0.0077,0.0075,0.0082,0.0074,0.0156,0.0156,0.0155,0.0155,0.0155,0,-0.0598,-0.0619,-0.0634,-0.0652,-0.0671,-0.0658,-0.0657,-0.0636,-0.0588,-0.0554,-0.0487,-0.0429,-0.0305,-0.0201,-0.0115,0.0015,0.0055,0.0088,0.0117,0.0053,0.0041,0.0091,0.0081,0.0159,0.0158,0.0158,0.0157,0,-0.0623,-0.0637,-0.0667,-0.068,-0.069,-0.0704,-0.0698,-0.0686,-0.0634,-0.0583,-0.0561,-0.0441,-0.0302,-0.0187,-0.0003,0.0047,0.0175,0.0216,0.0118,0.0138,0.0164,0.0151,0.0295,0.0296,0.0296,0.0296,0.0296,0,-0.0635,-0.0656,-0.0698,-0.0726,-0.074,-0.0756,-0.0766,-0.0725,-0.0704,-0.0587,-0.0559,-0.0415,-0.0328,-0.0099,0.0026,0.0201,0.0218,0.027,0.0232,0.0172,0.0186,0.0172,0.0159,0.0297,0.0297,0.0297,0.0297,0,-0.0655,-0.0677,-0.0705,-0.0766,-0.0797,-0.0817,-0.082,-0.0803,-0.0731,-0.0681,-0.0544,-0.0412,-0.0251,-0.009,0.0041,0.0166,0.0226,0.0274,0.0274,0.0239,0.0175,0.0186,0.0172,0.0298,0.0298,0.0298,0.0298,0,-0.0669,-0.0699,-0.0747,-0.0793,-0.0843,-0.0865,-0.0858,-0.0812,-0.0774,-0.0638,-0.0586,-0.0402,-0.0286,-0.0104,0.0023,0.0133,0.0159,0.0172,0.0178,0.0178,0.0097,-0.0005,0.0104,0,0,0,0,0,-0.0676,-0.0716,-0.0767,-0.0823,-0.0872,-0.0895,-0.0889,-0.0864,-0.0787,-0.0701,-0.0641,-0.0486,-0.0263,-0.0155,-0.0047,0.0015,0.016,0.0142,0.0173,0.0305,0.0304,0.0224,0,0,0,0,0,0,-0.0685,-0.0741,-0.0769,-0.0837,-0.0878,-0.0921,-0.0918,-0.0866,-0.0807,-0.0711,-0.0593,-0.0487,-0.0277,-0.0332,-0.0055,-0.0015,0.0014,0.0259,0.0261,0.0306,0.0304,0.0303,0.0221,0,0,0,0,0]}]]